Flag for China Weather past 2 weeks in Tianjin, Tianjin Municipality, China

Now
61 °F

Fog.


Feels Like: 61 °F
Forecast: 56 / 75 °F
Wind: 3 mph from Southwest

Location: Tianjin / Zhangguizhu

Current Time: Oct 23, 2014 at 11:30:11 AM

Latest Report: Oct 23, 2014 at 11:00 AM


Visibility: 1 mi

Pressure: 30.01 "Hg

Humidity: 77%

Dew point: 54 °F

Location of TianjinLocation

Historic Weather in Tianjin — Graph

°F

Tianjin temperature yesterday

Maximum temperature yesterday: 63 °F (at 2:00 PM)
Minimum temperature yesterday: 48 °F (at 12:00 AM)
Average temperature yesterday: 55 °F

Past Weeks' High & Low Weather Summary

 TemperatureHumidityPressure
High79 °F (Oct 18, 2:00 PM)100% (Oct 10, 11:30 PM)30.48 "Hg (Oct 10, 11:30 PM)
Low41 °F (Oct 13, 6:30 AM)13% (Oct 15, 2:00 PM)29.92 "Hg (Oct 15, 3:30 AM)
Average60 °F58%30.13 "Hg
* Reported Oct 8 10:00 AM — Oct 23 10:30 AM, Tianjin, Weather by CustomWeather, © 2014

Note: Actual official high and low records may vary slightly from our data, if they occured in-between our weather recording intervals... More about our weather records

Advertising

Tianjin weather history for previous 24 hours

 ConditionsComfort  
Time TempWeatherWind HumidityBarometerVisibility
10:30 AM
Oct 23
61 °FFog.6 mph77%30.01 "Hg1 mi
10:00 AM61 °FFog.3 mph72%30.01 "Hg1 mi
9:30 AM61 °FFog.3 mph72%30.04 "Hg1 mi
9:00 AM59 °FFog.3 mph77%30.04 "Hg1 mi
8:30 AM59 °FFog.1 mph72%30.04 "Hg1 mi
8:00 AM59 °FFog.3 mph72%30.04 "Hg1 mi
7:30 AM57 °FFog.6 mph77%30.04 "Hg1 mi
7:00 AM57 °FFog.6 mph77%30.01 "Hg1 mi
6:30 AM57 °FFog.3 mph77%30.01 "Hg1 mi
6:00 AM57 °FFog.3 mph77%30.01 "Hg2 mi
5:30 AM55 °FFog.3 mph82%30.01 "Hg2 mi
5:00 AM55 °FFog.3 mph82%30.01 "Hg2 mi
4:30 AM55 °FFog.3 mph82%30.04 "Hg2 mi
4:00 AM57 °FFog.3 mph77%30.04 "Hg2 mi
3:30 AM55 °FFog.1 mph82%30.04 "Hg2 mi
3:00 AM55 °FFog.1 mph88%30.04 "Hg2 mi
2:30 AM55 °FFog.1 mph82%30.07 "Hg2 mi
2:00 AM55 °FFog.1 mph82%30.07 "Hg3 mi
1:30 AM54 °FFog.1 mph88%30.07 "Hg3 mi
1:00 AM52 °FFog.1 mph88%30.09 "Hg3 mi
12:30 AM54 °FFog.1 mph82%30.09 "Hg3 mi
12:00 AM52 °FClear.1 mph88%30.09 "Hg4 mi
11:30 PM
Oct 22
54 °FClear.3 mph82%30.09 "Hg4 mi
11:00 PM55 °FClear.3 mph77%30.12 "Hg4 mi
10:30 PM55 °FClear.1 mph72%30.12 "Hg4 mi
10:00 PM57 °FClear.1 mph72%30.12 "Hg4 mi
9:30 PM57 °FClear.1 mph72%30.12 "Hg5 mi
9:00 PM57 °FClear.1 mph67%30.12 "Hg5 mi
8:30 PM57 °FClear.1 mph67%30.12 "Hg5 mi
8:00 PM57 °FClear.3 mph67%30.12 "Hg5 mi
7:30 PM57 °FClear.3 mph67%30.12 "Hg10 mi
7:00 PM57 °FClear.3 mph67%30.12 "Hg10 mi
6:30 PM57 °FClear.3 mph67%30.12 "Hg10 mi
6:00 PM55 °FClear.3 mph67%30.12 "Hg10 mi
5:30 PM59 °FPassing clouds.6 mph55%30.12 "HgN/A
5:00 PM59 °FSunny.3 mph48%30.12 "Hg10 mi
4:30 PM61 °FSunny.6 mph45%30.12 "Hg10 mi
4:00 PM61 °FPassing clouds.6 mph45%30.12 "HgN/A
3:30 PM61 °FPassing clouds.3 mph48%30.15 "HgN/A
3:00 PM61 °FPassing clouds.3 mph48%30.15 "HgN/A
2:30 PM61 °FPassing clouds.6 mph48%30.15 "HgN/A
2:00 PM63 °FPassing clouds.6 mph45%30.18 "HgN/A
1:30 PM61 °FPassing clouds.6 mph45%30.18 "HgN/A
1:00 PM61 °FSunny.6 mph48%30.18 "Hg10 mi
12:30 PM61 °FPassing clouds.6 mph48%30.21 "HgN/A
12:00 PM59 °FSunny.8 mph55%30.21 "Hg10 mi
11:30 AM59 °FClear.6 mph51%30.24 "Hg5 mi
11:00 AM57 °FClear.6 mph55%30.24 "Hg5 mi
Weather by CustomWeather, © 2014

See weather overviewHow to use our weather pages